[[{"header":{"parameterUnit":"m.s-1","parameterCategory":1,"la1":30.2991,"la2":30.254,"lo1":-89.0895,"lo2":-89.0444,"dy":0.0017,"dx":0.0017,"nx":28,"ny":28,"refTime":"2024-08-28T09:00:00:Z","depth":0,"parameterNumber":2,"parameterNumberName":"U-component_of_WINDS"},"data":[0,0,0,0,0,0,0,0,0,0,0,0,0,0,0,0,0,0,0,0,0,0,0,0,0,0,0,0,0,0,0,0,0,0,0,0,0,0,0,0,0,0,0,0,0,0,0,0,0,0,0,0,0,0,0,0,0,0,-3.1166,-3.1167,0,-3.1238,-3.1239,-3.124,-3.1208,-3.1207,-3.1205,-3.1203,-3.1273,-3.1277,-3.128,0,0,0,0,0,0,0,0,0,0,0,0,0,-3.0995,-3.0999,-3.1166,-3.1167,-3.1168,-3.1238,-3.1239,-3.124,-3.1209,-3.1206,-3.1204,-3.1202,-3.1272,-3.1276,-3.128,0,0,0,0,0,0,0,0,0,0,0,0,0,-3.1069,-3.1,-3.1166,-3.116,-3.1161,-3.1238,-3.1239,-3.124,-3.1209,-3.1206,-3.1204,-3.1201,-3.1271,-3.1276,-3.1281,-3.1366,0,0,-3.1297,-3.1299,0,0,0,0,0,0,0,0,-3.1065,-3.1075,-3.116,-3.1161,-3.1161,-3.1212,-3.1205,-3.1283,-3.121,-3.1191,-3.1203,-3.12,-3.1255,-3.1261,-3.128,-3.137,-3.1373,-3.1298,-3.1301,-3.1303,-3.1304,0,0,0,0,0,0,0,-3.106,-3.1072,-3.1194,-3.1161,-3.1162,-3.1153,-3.1161,-3.1219,-3.1236,-3.1192,-3.119,-3.1199,-3.1254,-3.1275,-3.1282,-3.1374,-3.1297,-3.1302,-3.1305,-3.1307,-3.1536,-3.1538,0,0,0,0,0,0,-3.1055,-3.1068,-3.1192,-3.1196,-3.1106,-3.1158,-3.1167,-3.1198,-3.1236,-3.1239,-3.1201,-3.1197,-3.1268,-3.1276,-3.1284,-3.1385,-3.1303,-3.1308,-3.1311,-3.1533,-3.1536,-3.1539,0,0,0,0,0,0,-3.1052,-3.1067,-3.1189,-3.1132,-3.1147,-3.1164,-3.12,-3.1201,-3.1222,-3.1243,-3.1245,-3.122,-3.1266,-3.1277,-3.1346,-3.1387,-3.131,-3.1315,-3.1529,-3.1534,-3.1538,-3.159,0,0,0,0,0,0,-3.1047,-3.1066,-3.1099,-3.1133,-3.115,-3.1251,-3.1202,-3.1204,-3.1232,-3.1227,-3.1261,-3.1264,-3.1265,-3.1339,-3.1351,-3.1393,-3.1319,-3.1526,-3.1531,-3.1536,-3.1584,-3.1595,-3.1605,0,0,0,0,0,-3.1041,-3.111,-3.1101,-3.1116,-3.1192,-3.1254,-3.1263,-3.1264,-3.1235,-3.1268,-3.1282,-3.1263,-3.1381,-3.1346,-3.136,-3.1404,-3.1523,-3.153,-3.1536,-3.158,-3.1593,-3.1604,0,0,0,0,0,0,-3.1079,-3.1114,-3.1105,-3.1187,-3.1218,-3.1248,-3.129,-3.1278,-3.1317,-3.1311,-3.1309,-3.1317,-3.1389,-3.1404,-3.1364,-3.1488,-3.1447,-3.1457,-3.1476,-3.1489,-3.1499,-3.1493,-3.1324,0,0,0,0,0,-3.1098,-3.1146,-3.1174,-3.1244,-3.126,-3.1273,-3.1299,-3.1297,-3.1329,-3.1341,-3.1359,-3.1389,-3.1433,-3.1462,-3.1504,-3.1587,-3.1593,-3.1624,-3.1634,-3.1643,-3.165,-3.1694,-3.1708,-3.1561,-3.1561,-3.1561,0,0,-3.1135,-3.1161,-3.1191,-3.1252,-3.1276,-3.1324,-3.1284,-3.1337,-3.1372,-3.1349,-3.1415,-3.143,-3.1463,-3.154,-3.1575,-3.1554,-3.1693,-3.1651,-3.1657,-3.1661,-3.1702,-3.1716,-3.1728,-3.1565,-3.1564,-3.1564,0,0,-3.1229,-3.1254,-3.1314,-3.1339,-3.1376,-3.1384,-3.1399,-3.1431,-3.1441,-3.1508,-3.1491,-3.1533,-3.1609,-3.1633,-3.1655,-3.1758,-3.1741,-3.1772,-3.1824,-3.1867,-3.1878,-3.1888,-3.1923,-3.1936,-3.178,-3.178,-3.178,0,-3.1271,-3.1345,-3.1346,-3.1401,-3.1428,-3.141,-3.1471,-3.1494,-3.1542,-3.156,-3.1538,-3.1633,-3.1654,-3.1735,-3.176,-3.1779,-3.1795,-3.1767,-3.1877,-3.1887,-3.1896,-3.193,-3.1943,-3.1783,-3.1783,-3.1782,-3.1782,0,-3.1393,-3.1445,-3.1489,-3.1538,-3.1569,-3.1627,-3.1636,-3.1667,-3.1663,-3.1673,-3.1741,-3.1766,-3.1812,-3.1832,-3.1827,-3.1912,-3.1898,-3.1877,-3.1835,-3.1914,-3.1945,-3.1958,-3.1788,-3.1787,-3.1786,-3.1785,0,0,-3.1512,-3.1561,-3.1577,-3.1598,-3.1638,-3.1677,-3.1733,-3.1779,-3.1806,-3.184,-3.1886,-3.1951,-3.1931,-3.1956,-3.1954,-3.1992,-3.207,-3.1965,-3.1966,-3.1982,-3.2163,-3.2179,-3.2194,-3.206,-3.2063,-3.2065,-3.216,0,-3.1607,-3.1707,-3.171,-3.18,-3.1847,-3.1831,-3.188,-3.1909,-3.192,-3.196,-3.1971,-3.2017,-3.1988,-3.2003,-3.204,-3.2053,-3.2106,-3.2046,-3.2101,-3.2103,-3.2091,-3.221,-3.2226,-3.2315,-3.2173,-3.2175,-3.2176,0,-3.1731,-3.177,-3.1865,-3.1898,-3.1918,-3.1962,-3.2004,-3.2043,-3.2075,-3.208,-3.2109,-3.2102,-3.2157,-3.2116,-3.2192,-3.2151,-3.2173,-3.2183,-3.2187,-3.219,-3.2143,-3.2215,-3.2344,-3.2356,-3.2196,-3.2194,-3.2193,0,-3.1806,-3.1882,-3.1949,-3.1968,-3.2008,-3.2039,-3.2057,-3.2086,-3.2114,-3.215,-3.2168,-3.221,-3.2233,-3.2265,-3.2269,-3.2239,-3.2345,-3.2304,-3.2349,-3.2349,-3.2371,-3.2369,-3.2503,-3.2389,-3.2388,-3.2388,-3.2388,0,-3.1911,-3.1969,-3.1983,-3.2024,-3.2089,-3.2092,-3.2155,-3.217,-3.2197,-3.2239,-3.2228,-3.2268,-3.2271,-3.2312,-3.2315,-3.2376,-3.2387,-3.2392,-3.2391,-3.2392,-3.2391,-3.2405,-3.2399,-3.2392,-3.2391,-3.239,-3.239,0,-3.2004,-3.2016,-3.2088,-3.212,-3.213,-3.2176,-3.2203,-3.2241,-3.2252,-3.2305,-3.2318,-3.2334,-3.2381,-3.2389,-3.2444,-3.2446,-3.2519,-3.2513,-3.2508,-3.2507,-3.2551,-3.2546,-3.2697,-3.2717,-3.2591,-3.2593,-3.2594,0,-3.207,-3.2115,-3.2152,-3.2181,-3.22,-3.2246,-3.2274,-3.2279,-3.2308,-3.2348,-3.2381,-3.2428,-3.2465,-3.2541,-3.2556,-3.2598,-3.2592,-3.2642,-3.2598,-3.2596,-3.259,-3.2587,-3.2591,-3.265,-3.2651,-3.2652,-3.2653,0,-3.2184,-3.2188,-3.223,-3.2274,-3.2308,-3.2343,-3.2375,-3.2399,-3.2407,-3.2441,-3.249,-3.2519,-3.2575,-3.2621,-3.2663,-3.2679,-3.2667,-3.2667,-3.268,-3.2679,-3.2674,-3.2676,-3.253,-3.2663,-3.2662,-3.2661,-3.2661,-3.266,-3.2265,-3.2303,-3.2336,-3.2383,-3.2408,-3.2439,-3.2476,-3.2492,-3.2533,-3.258,-3.258,-3.2633,-3.2663,-3.2718,-3.2738,-3.2778,-3.2762,-3.278,-3.2784,-3.2789,-3.2792,-3.2669,-3.2786,-3.2786,-3.2785,-3.2785,-3.2785,0,-3.2377,-3.2397,-3.2441,-3.2487,-3.2524,-3.2511,-3.2547,-3.2577,-3.2625,-3.2655,-3.2692,-3.2747,-3.2791,-3.281,-3.2853,-3.2882,-3.2878,-3.2893,-3.289,-3.2894,-3.2805,-3.2789,-3.2896,-3.2896,-3.2896,-3.2896,-3.2896,-3.2896,-3.244,-3.2504,-3.2512,-3.2588,-3.2608,-3.2661,-3.2682,-3.271,-3.2734,-3.2796,-3.2833,-3.2846,-3.2871,-3.2916,-3.2956,-3.296,-3.2975,-3.2993,-3.2995,-3.2911,-3.29,-3.2889,-3.2874,-3.2997,-3.2997,-3.308,-3.3081,-3.3081]},{"header":{"parameterUnit":"m.s-1","parameterCategory":1,"la1":30.2991,"la2":30.254,"lo1":-89.0895,"lo2":-89.0444,"dy":0.0017,"dx":0.0017,"nx":28,"ny":28,"refTime":"2024-08-28T09:00:00:Z","depth":0,"parameterNumber":3,"parameterNumberName":"V-component_of_WINDS"},"data":[0,0,0,0,0,0,0,0,0,0,0,0,0,0,0,0,0,0,0,0,0,0,0,0,0,0,0,0,0,0,0,0,0,0,0,0,0,0,0,0,0,0,0,0,0,0,0,0,0,0,0,0,0,0,0,0,0,0,1.487,1.487,0,1.4905,1.4905,1.4906,1.4905,1.4904,1.4904,1.4903,1.4938,1.4939,1.494,0,0,0,0,0,0,0,0,0,0,0,0,0,1.4802,1.4803,1.487,1.487,1.487,1.4905,1.4905,1.4906,1.4905,1.4904,1.4904,1.4903,1.4937,1.4939,1.4941,0,0,0,0,0,0,0,0,0,0,0,0,0,1.4833,1.4803,1.4869,1.4874,1.4875,1.4905,1.4905,1.4906,1.4905,1.4904,1.4903,1.4903,1.4937,1.4939,1.4941,1.4968,0,0,1.4947,1.4948,0,0,0,0,0,0,0,0,1.4832,1.4836,1.4873,1.4874,1.4875,1.49,1.4894,1.4927,1.4905,1.4893,1.4903,1.4902,1.4926,1.4928,1.4937,1.4969,1.4971,1.4947,1.4948,1.4949,1.495,0,0,0,0,0,0,0,1.4829,1.4834,1.4883,1.4874,1.4875,1.4875,1.4878,1.49,1.4913,1.4894,1.4894,1.4899,1.4926,1.4935,1.4937,1.4971,1.4947,1.4949,1.495,1.4951,1.5031,1.5032,0,0,0,0,0,0,1.4826,1.4833,1.4882,1.4885,1.4851,1.4876,1.4881,1.4892,1.4913,1.4915,1.4899,1.4899,1.4932,1.4935,1.4939,1.4973,1.4949,1.4951,1.4952,1.503,1.5031,1.5032,0,0,0,0,0,0,1.4825,1.4831,1.4881,1.4859,1.4865,1.4878,1.4892,1.4893,1.4902,1.4917,1.4919,1.4906,1.4931,1.4936,1.4961,1.4974,1.4952,1.4954,1.5029,1.5031,1.5032,1.5042,0,0,0,0,0,0,1.4823,1.483,1.484,1.4859,1.4866,1.4903,1.4892,1.4895,1.4906,1.4905,1.4923,1.4926,1.4931,1.4958,1.4963,1.4977,1.4956,1.5028,1.503,1.5031,1.504,1.5043,1.5046,0,0,0,0,0,1.482,1.4841,1.4841,1.4847,1.4879,1.4904,1.4908,1.4914,1.4907,1.4918,1.4927,1.4925,1.4972,1.4961,1.4967,1.4981,1.5027,1.5029,1.5031,1.5039,1.5043,1.5046,0,0,0,0,0,0,1.4822,1.4843,1.4843,1.487,1.4885,1.4903,1.4916,1.4917,1.4934,1.4932,1.4939,1.4943,1.4969,1.4978,1.4965,1.501,1.4999,1.5002,1.5003,1.5006,1.5009,1.5006,1.4957,0,0,0,0,0,1.4825,1.4844,1.4861,1.4883,1.4891,1.4903,1.4913,1.4917,1.4933,1.4939,1.495,1.4965,1.4984,1.4996,1.5013,1.5042,1.5047,1.5055,1.5058,1.506,1.5062,1.508,1.5085,1.5039,1.5039,1.5039,0,0,1.4832,1.4847,1.4857,1.4884,1.4896,1.4915,1.4908,1.4928,1.4942,1.4942,1.4967,1.4976,1.4994,1.5022,1.5034,1.5029,1.5076,1.5062,1.5064,1.5065,1.5083,1.5087,1.5091,1.504,1.504,1.504,0,0,1.4855,1.4868,1.4888,1.4901,1.492,1.4929,1.4934,1.4953,1.4959,1.4985,1.4986,1.5003,1.5034,1.5048,1.5058,1.509,1.5089,1.5096,1.511,1.5127,1.5131,1.5134,1.5146,1.5151,1.5098,1.5098,1.5098,0,1.4862,1.4891,1.4898,1.492,1.4932,1.4934,1.4956,1.4968,1.4991,1.5,1.4995,1.5036,1.5047,1.5079,1.5088,1.5096,1.5103,1.5093,1.513,1.5133,1.5136,1.5148,1.5152,1.5099,1.5099,1.5099,1.5099,0,1.4898,1.4919,1.4933,1.4958,1.4972,1.4993,1.5004,1.5018,1.5021,1.503,1.5058,1.5073,1.5094,1.5102,1.5105,1.5136,1.5132,1.5128,1.5117,1.5141,1.5152,1.5157,1.51,1.51,1.51,1.5099,0,0,1.492,1.4951,1.4957,1.4969,1.4992,1.5008,1.503,1.5052,1.5064,1.5081,1.5101,1.5129,1.5126,1.5138,1.5143,1.5158,1.5185,1.5153,1.5153,1.5159,1.5221,1.5224,1.5229,1.5185,1.5185,1.5186,1.522,0,1.4946,1.4986,1.4995,1.5029,1.5049,1.5053,1.5073,1.5089,1.5099,1.5118,1.5129,1.5149,1.5143,1.5151,1.5166,1.5178,1.5197,1.5176,1.5203,1.5204,1.5198,1.5235,1.5237,1.5268,1.5224,1.5225,1.5225,0,1.498,1.5,1.5037,1.506,1.5069,1.5086,1.5109,1.5126,1.5146,1.5152,1.5168,1.5172,1.5196,1.5185,1.5219,1.5205,1.5217,1.5225,1.5226,1.5228,1.5216,1.5238,1.5278,1.5282,1.5232,1.5232,1.5231,0,1.4994,1.503,1.5057,1.5067,1.5094,1.5107,1.5119,1.5138,1.5152,1.5172,1.5181,1.5204,1.5216,1.5233,1.5244,1.5235,1.5278,1.5267,1.5284,1.5284,1.5292,1.5291,1.5334,1.53,1.53,1.5299,1.5299,0,1.5022,1.5044,1.5064,1.5081,1.5107,1.5118,1.5143,1.5155,1.5173,1.5192,1.5197,1.5216,1.5228,1.5249,1.5257,1.5285,1.529,1.5296,1.5298,1.5296,1.5295,1.5303,1.5302,1.5301,1.53,1.53,1.53,0,1.5041,1.5055,1.5085,1.5109,1.5116,1.5134,1.5155,1.5172,1.5184,1.5208,1.5215,1.5232,1.5257,1.527,1.5299,1.5305,1.5337,1.5337,1.5331,1.5331,1.5348,1.5347,1.5397,1.5405,1.5365,1.5366,1.5366,0,1.5057,1.5075,1.5102,1.5116,1.5129,1.5151,1.5166,1.5179,1.5194,1.522,1.5234,1.5259,1.528,1.5319,1.5335,1.5358,1.536,1.5376,1.5363,1.5361,1.5361,1.536,1.5362,1.5378,1.5378,1.5379,1.5379,0,1.5085,1.5092,1.5114,1.5139,1.5157,1.5177,1.5197,1.5208,1.5224,1.5242,1.5268,1.5284,1.5317,1.5342,1.5367,1.538,1.5383,1.5383,1.5389,1.5386,1.5382,1.5386,1.5337,1.5382,1.5382,1.5381,1.5381,1.5381,1.5104,1.5121,1.5144,1.5168,1.5185,1.5204,1.5222,1.5237,1.5259,1.5287,1.5293,1.5321,1.5343,1.5378,1.5392,1.5414,1.5411,1.5418,1.542,1.5421,1.5423,1.5379,1.5419,1.5419,1.5419,1.5418,1.5418,0,1.5133,1.5149,1.5172,1.52,1.522,1.5223,1.5246,1.5262,1.5287,1.5308,1.5329,1.536,1.5386,1.5404,1.543,1.5445,1.5447,1.5451,1.545,1.5454,1.5424,1.5417,1.545,1.545,1.545,1.545,1.545,1.545,1.515,1.518,1.519,1.5229,1.5244,1.5273,1.5286,1.5304,1.5321,1.5356,1.5378,1.539,1.5411,1.5439,1.5463,1.5468,1.5478,1.5482,1.5487,1.5459,1.5455,1.5452,1.5446,1.5484,1.5484,1.5515,1.5515,1.5516]}]]